Time,TemperatureF,DewpointF,PressureIn,WindDirection,WindDirectionDegrees,WindSpeedMPH,WindSpeedGustMPH,Humidity,HourlyPrecipIn,Conditions,Clouds,dailyrainin,SoftwareType,DateUTC
2013-11-08 00:22:00,39.0,25.0,29.90,SW,224,6.0,9.0,57,0.00,,,0.28,,2013-11-08 08:22:00,
2013-11-08 00:42:00,38.0,24.0,29.90,SSW,205,6.0,12.0,57,0.00,,,0.28,,2013-11-08 08:42:00,
2013-11-08 00:52:00,38.0,24.0,29.90,SW,219,6.0,10.0,57,0.00,,,0.28,,2013-11-08 08:52:00,
2013-11-08 01:21:00,38.0,25.0,29.90,SSW,213,7.0,14.0,58,0.00,,,0.27,,2013-11-08 09:21:00,
2013-11-08 01:43:00,38.0,25.0,29.90,South,186,6.0,9.0,58,0.00,,,0.27,,2013-11-08 09:43:00,
2013-11-08 01:53:00,38.0,25.0,29.90,SSW,202,6.0,10.0,58,0.00,,,0.27,,2013-11-08 09:53:00,
2013-11-08 02:12:00,38.0,25.0,29.90,SSW,194,6.0,9.0,59,0.00,,,0.27,,2013-11-08 10:12:00,
2013-11-08 02:23:00,38.0,25.0,29.90,SSW,192,6.0,10.0,59,0.00,,,0.27,,2013-11-08 10:23:00,
2013-11-08 02:42:00,38.0,25.0,29.93,SSW,208,5.0,9.0,58,0.00,,,0.27,,2013-11-08 10:42:00,
2013-11-08 02:53:00,39.0,25.0,29.93,SSW,211,6.0,9.0,57,0.00,,,0.27,,2013-11-08 10:53:00,
2013-11-08 03:22:00,39.0,24.0,29.93,SSW,194,4.0,8.0,55,0.00,,,0.27,,2013-11-08 11:22:00,
2013-11-08 03:42:00,39.0,25.0,29.93,SSW,202,6.0,9.0,57,0.00,,,0.27,,2013-11-08 11:42:00,
2013-11-08 03:52:00,39.0,25.0,29.93,SW,216,6.0,8.0,57,0.00,,,0.27,,2013-11-08 11:52:00,
2013-11-08 04:11:00,39.0,25.0,29.93,SSW,208,4.0,8.0,57,0.00,,,0.27,,2013-11-08 12:11:00,
2013-11-08 04:21:00,38.0,24.0,29.93,SSW,195,5.0,6.0,57,0.00,,,0.27,,2013-11-08 12:21:00,
2013-11-08 04:42:00,38.0,25.0,29.93,SSW,211,5.0,7.0,58,0.00,,,0.27,,2013-11-08 12:42:00,
2013-11-08 04:52:00,38.0,25.0,29.93,SSW,202,5.0,8.0,58,0.00,,,0.27,,2013-11-08 12:52:00,
2013-11-08 05:11:00,38.0,25.0,29.93,SSW,202,5.0,12.0,58,0.00,,,0.27,,2013-11-08 13:11:00,
2013-11-08 05:21:00,38.0,25.0,29.93,SSW,211,5.0,6.0,58,0.00,,,0.27,,2013-11-08 13:21:00,
2013-11-08 05:52:00,38.0,25.0,29.93,South,186,6.0,9.0,58,0.00,,,0.27,,2013-11-08 13:52:00,
2013-11-08 06:11:00,39.0,25.0,29.96,SSW,202,6.0,8.0,58,0.00,,,0.27,,2013-11-08 14:11:00,
2013-11-08 06:21:00,39.0,25.0,29.96,SSW,202,7.0,9.0,57,0.00,,,0.27,,2013-11-08 14:21:00,
2013-11-08 06:42:00,39.0,25.0,29.93,SW,226,7.0,12.0,57,0.00,,,0.27,,2013-11-08 14:42:00,
2013-11-08 06:52:00,39.0,25.0,29.93,SSW,213,5.0,9.0,57,0.00,,,0.27,,2013-11-08 14:52:00,
2013-11-08 07:11:00,38.0,24.0,29.96,SW,214,6.0,8.0,57,0.00,,,0.27,,2013-11-08 15:11:00,
2013-11-08 07:22:00,38.0,25.0,29.96,SW,218,6.0,10.0,58,0.00,,,0.27,,2013-11-08 15:22:00,
2013-11-08 07:43:00,39.0,25.0,29.96,WSW,237,3.0,8.0,58,0.00,,,0.27,,2013-11-08 15:43:00,
2013-11-08 07:53:00,39.0,25.0,29.96,SW,235,3.0,6.0,58,0.00,,,0.27,,2013-11-08 15:53:00,
2013-11-08 08:12:00,39.0,25.0,29.96,WSW,244,3.0,9.0,57,0.00,,,0.27,,2013-11-08 16:12:00,
2013-11-08 08:23:00,39.0,25.0,29.96,SW,233,3.0,8.0,58,0.00,,,0.27,,2013-11-08 16:23:00,
2013-11-08 08:42:00,39.0,25.0,29.96,SW,227,4.0,6.0,56,0.00,,,0.27,,2013-11-08 16:42:00,
2013-11-08 08:53:00,40.0,26.0,29.96,SSW,207,3.0,7.0,56,0.00,,,0.27,,2013-11-08 16:53:00,
2013-11-08 09:22:00,41.0,26.0,29.96,WSW,248,5.0,8.0,54,0.00,,,0.25,,2013-11-08 17:22:00,
2013-11-08 09:42:00,41.0,25.0,29.96,West,274,3.0,8.0,53,0.00,,,0.23,,2013-11-08 17:42:00,
2013-11-08 09:52:00,40.0,24.0,29.96,West,269,5.0,9.0,53,0.00,,,0.23,,2013-11-08 17:52:00,
2013-11-08 10:22:00,41.0,27.0,29.96,SSW,203,3.0,7.0,56,0.00,,,0.22,,2013-11-08 18:22:00,
2013-11-08 10:42:00,42.0,27.0,29.96,SSW,202,5.0,8.0,55,0.00,,,0.22,,2013-11-08 18:42:00,
2013-11-08 10:52:00,42.0,27.0,29.96,SW,217,5.0,7.0,54,0.00,,,0.22,,2013-11-08 18:52:00,
2013-11-08 11:12:00,44.0,27.0,29.96,SW,236,3.0,8.0,50,0.00,,,0.22,,2013-11-08 19:12:00,
2013-11-08 11:21:00,45.0,28.0,29.96,SSW,202,5.0,8.0,51,0.00,,,0.21,,2013-11-08 19:21:00,
2013-11-08 11:42:00,46.0,28.0,29.96,SSW,205,3.0,6.0,49,0.00,,,0.21,,2013-11-08 19:42:00,
2013-11-08 11:52:00,45.0,27.0,29.96,SSW,202,3.0,7.0,48,0.00,,,0.18,,2013-11-08 19:52:00,
2013-11-08 12:11:00,45.0,26.0,29.96,SW,236,5.0,7.0,47,0.00,,,0.17,,2013-11-08 20:11:00,
2013-11-08 12:21:00,44.0,26.0,29.96,WNW,285,6.0,9.0,49,0.00,,,0.13,,2013-11-08 20:21:00,
2013-11-08 12:42:00,44.0,26.0,29.93,WNW,283,5.0,9.0,48,0.00,,,0.08,,2013-11-08 20:42:00,
2013-11-08 12:52:00,45.0,27.0,29.93,SW,232,5.0,9.0,49,0.00,,,0.07,,2013-11-08 20:52:00,
2013-11-08 13:11:00,44.0,26.0,29.93,West,273,5.0,10.0,49,0.00,,,0.04,,2013-11-08 21:11:00,
2013-11-08 13:22:00,45.0,27.0,29.93,WSW,256,6.0,8.0,49,0.00,,,0.02,,2013-11-08 21:22:00,
2013-11-08 13:44:00,44.0,26.0,29.93,WNW,292,5.0,7.0,49,0.00,,,0.00,,2013-11-08 21:44:00,
2013-11-08 13:53:00,44.0,26.0,29.93,West,276,5.0,7.0,49,0.00,,,0.00,,2013-11-08 21:53:00,
2013-11-08 14:13:00,44.0,26.0,29.93,WNW,295,4.0,6.0,49,0.00,,,0.00,,2013-11-08 22:13:00,
2013-11-08 14:23:00,44.0,27.0,29.93,WNW,289,4.0,7.0,50,0.00,,,0.00,,2013-11-08 22:23:00,
2013-11-08 14:43:00,44.0,27.0,29.93,NW,314,4.0,6.0,51,0.00,,,0.00,,2013-11-08 22:43:00,
2013-11-08 14:53:00,43.0,27.0,29.93,NW,322,3.0,5.0,52,0.00,,,0.00,,2013-11-08 22:53:00,
2013-11-08 15:12:00,43.0,27.0,29.93,NW,325,3.0,6.0,52,0.00,,,0.00,,2013-11-08 23:12:00,
2013-11-08 15:22:00,43.0,27.0,29.93,WNW,292,3.0,6.0,52,0.00,,,0.00,,2013-11-08 23:22:00,
2013-11-08 15:42:00,43.0,28.0,29.93,NW,317,2.0,5.0,54,0.00,,,0.00,,2013-11-08 23:42:00,
2013-11-08 15:53:00,43.0,28.0,29.93,WNW,292,2.0,5.0,55,0.00,,,0.00,,2013-11-08 23:53:00,
2013-11-08 16:12:00,43.0,28.0,29.93,NW,321,2.0,3.0,56,0.00,,,0.00,,2013-11-09 00:12:00,
2013-11-08 16:21:00,42.0,28.0,29.93,NNW,329,2.0,2.0,57,0.00,,,0.00,,2013-11-09 00:21:00,
2013-11-08 16:52:00,41.0,27.0,29.93,NNW,338,0.0,0.0,58,0.00,,,0.00,,2013-11-09 00:52:00,
2013-11-08 17:11:00,40.0,26.0,29.93,ENE,68,0.0,0.0,58,0.00,,,0.00,,2013-11-09 01:11:00,
2013-11-08 17:22:00,39.0,26.0,29.93,ENE,68,0.0,0.0,59,0.00,,,0.00,,2013-11-09 01:22:00,
2013-11-08 17:42:00,38.0,25.0,29.93,ESE,112,2.0,2.0,60,0.00,,,0.00,,2013-11-09 01:42:00,
2013-11-08 17:52:00,37.0,25.0,29.93,ESE,110,1.0,2.0,61,0.00,,,0.00,,2013-11-09 01:52:00,
2013-11-08 18:11:00,38.0,27.0,29.93,SSE,160,0.0,0.0,65,0.00,,,0.00,,2013-11-09 02:11:00,
2013-11-08 18:22:00,38.0,28.0,29.93,NE,45,1.0,2.0,66,0.00,,,0.00,,2013-11-09 02:22:00,
2013-11-08 18:42:00,37.0,27.0,29.93,ENE,70,0.0,1.0,67,0.00,,,0.00,,2013-11-09 02:42:00,
2013-11-08 18:52:00,37.0,27.0,29.93,ESE,112,1.0,1.0,66,0.00,,,0.00,,2013-11-09 02:52:00,
2013-11-08 19:21:00,37.0,27.0,29.93,ESE,123,2.0,3.0,68,0.00,,,0.00,,2013-11-09 03:21:00,
2013-11-08 19:54:00,38.0,29.0,29.93,SE,142,2.0,2.0,69,0.00,,,0.00,,2013-11-09 03:54:00,
2013-11-08 20:23:00,38.0,29.0,29.93,ESE,118,3.0,5.0,70,0.00,,,0.00,,2013-11-09 04:23:00,
2013-11-08 20:42:00,38.0,29.0,29.93,ESE,119,2.0,3.0,71,0.00,,,0.00,,2013-11-09 04:42:00,
2013-11-08 20:53:00,38.0,29.0,29.93,SE,141,3.0,3.0,70,0.00,,,0.00,,2013-11-09 04:53:00,
2013-11-08 21:13:00,37.0,28.0,29.93,ESE,112,2.0,3.0,71,0.00,,,0.00,,2013-11-09 05:13:00,
2013-11-08 21:22:00,37.0,28.0,29.93,SE,133,3.0,5.0,71,0.00,,,0.00,,2013-11-09 05:22:00,
2013-11-08 21:43:00,37.0,28.0,29.93,ESE,118,3.0,5.0,71,0.00,,,0.00,,2013-11-09 05:43:00,
2013-11-08 21:53:00,37.0,29.0,29.93,SE,129,5.0,5.0,72,0.00,,,0.00,,2013-11-09 05:53:00,
2013-11-08 22:13:00,37.0,28.0,29.93,SSE,152,3.0,5.0,71,0.00,,,0.00,,2013-11-09 06:13:00,
2013-11-08 22:22:00,37.0,28.0,29.93,SE,127,4.0,6.0,71,0.00,,,0.00,,2013-11-09 06:22:00,
2013-11-08 22:43:00,35.0,27.0,29.93,ESE,123,3.0,5.0,71,0.00,,,0.00,,2013-11-09 06:43:00,
2013-11-08 22:54:00,35.0,27.0,29.93,SE,126,5.0,6.0,73,0.00,,,0.00,,2013-11-09 06:54:00,
2013-11-08 23:21:00,35.0,28.0,29.93,SSE,149,4.0,6.0,74,0.00,,,0.00,,2013-11-09 07:21:00,
2013-11-08 23:42:00,35.0,28.0,29.93,SSE,158,3.0,5.0,74,0.00,,,0.00,,2013-11-09 07:42:00,
2013-11-08 23:52:00,35.0,28.0,29.93,ESE,120,5.0,6.0,75,0.00,,,0.00,,2013-11-09 07:52:00,